Caslav, Czech Republic

8:57 PM CEST on October 19, 2017 (GMT +0200)
Caslav

Weather History for LKCV - January, 2013

Change the Weather History Date:

Tuesday, January 1, 2013

  Actual Average Record
Temperature  
Mean Temperature 34 °F -  
Max Temperature 35 °F - - ()
Min Temperature 32 °F - - ()
Degree Days  
Heating Degree Days 32    
Moisture  
Dew Point 29 °F    
Average Humidity 86    
Maximum Humidity 93    
Minimum Humidity 81    
Precipitation  
Precipitation 0.00 in - - ()
Sea Level Pressure  
Sea Level Pressure 29.87 in    
Wind  
Wind Speed 9 mph ()    
Max Wind Speed 16 mph    
Max Gust Speed -    
Visibility 6.2 miles    
Events      
T = Trace of Precipitation, MM = Missing Value Source: Averaged Metar Reports

Daily Weather History Graph

Daily Weather History Graph

Search for Another Location

Airport or City:

Trip Planner

Search our weather history database for the weather conditions in past years. The results will help you decide how hot, cold, wet, or windy it might be!

Date:

Astronomy

Jan. 01, 2013 Rise Set
Actual Time 7:56 AM CET 4:07 PM CET
Civil Twilight 7:18 AM CET 4:45 PM CET
Nautical Twilight 6:37 AM CET 5:27 PM CET
Astronomical Twilight 5:58 AM CET 6:06 PM CET
Moon 8:48 PM CET (1/1) 9:35 AM CET (1/1)
Length of Visible Light 9h 27m
Length of Day
8h 11m
Waning Gibbous, 85% of the Moon is Illuminated
Jan 1
Waning Gibbous
Jan 5
Last Quarter
Jan 11
New
Jan 19
First Quarter
Jan 27
Full

Hourly Weather History & Observations

Time (CET) Temp. Windchill Dew Point Humidity Pressure Visibility Wind Dir Wind Speed Gust Speed Precip Events Conditions
12:00 AM 35.6 °F 29.2 °F 30.2 °F 81% 29.95 in - SE 8.1 mph - N/A   Clear
1:00 AM 33.8 °F 28.6 °F 30.2 °F 87% 29.92 in - SE 5.8 mph - N/A   Clear
2:00 AM 32.0 °F 26.4 °F 30.2 °F 93% 29.92 in - SSE 5.8 mph - N/A   Clear
3:00 AM 32.0 °F 25.6 °F 28.4 °F 87% 29.89 in - SSE 6.9 mph - N/A   Clear
4:00 AM 32.0 °F 24.8 °F 28.4 °F 87% 29.86 in - SE 8.1 mph - N/A   Clear
5:00 AM 32.0 °F 24.8 °F 28.4 °F 87% 29.86 in - SSE 8.1 mph - N/A   Clear
6:00 AM 32.0 °F 22.5 °F 28.4 °F 87% 29.86 in - SSE 12.7 mph - N/A   Clear
7:00 AM 33.8 °F 25.3 °F 28.4 °F 81% 29.86 in - SE 11.5 mph - N/A   Clear
8:00 AM 32.0 °F 23.0 °F 28.4 °F 87% 29.86 in - SSE 11.5 mph - N/A   Clear
9:00 AM 32.0 °F 23.0 °F 28.4 °F 87% 29.86 in - SSE 11.5 mph - N/A   Clear
10:00 AM 33.8 °F 24.3 °F 30.2 °F 87% 29.86 in - SSE 13.8 mph - N/A   Clear
11:00 AM 33.8 °F 23.9 °F 30.2 °F 87% 29.86 in - SSE 15.0 mph - N/A   Clear
12:00 PM 33.8 °F 24.3 °F 30.2 °F 87% 29.86 in - SSE 13.8 mph - N/A   Clear
1:00 PM 35.6 °F 26.6 °F 30.2 °F 81% 29.83 in - SSE 13.8 mph - N/A   Clear
2:00 PM 33.8 °F 23.5 °F 30.2 °F 87% 29.83 in - SSE 16.1 mph - N/A   Clear
3:00 PM 33.8 °F 24.3 °F 28.4 °F 81% 29.83 in - SSE 13.8 mph - N/A   Clear
4:00 PM 32.0 °F 23.6 °F 28.4 °F 87% 29.83 in - SSE 10.4 mph - N/A   Clear
5:00 PM 32.0 °F 22.5 °F 28.4 °F 87% 29.86 in - SSE 12.7 mph - N/A   Clear
6:00 PM 32.0 °F 23.6 °F 28.4 °F 87% 29.86 in - SSE 10.4 mph - N/A   Clear
7:00 PM 32.0 °F 22.5 °F 28.4 °F 87% 29.86 in - SSE 12.7 mph - N/A   Clear
8:00 PM 32.0 °F 24.2 °F 28.4 °F 87% 29.86 in 6.2 mi SE 9.2 mph - N/A   Mostly Cloudy
9:00 PM 33.8 °F 25.8 °F 28.4 °F 81% 29.86 in 6.2 mi SSE 10.4 mph - N/A   Mostly Cloudy
10:00 PM 32.0 °F 27.5 °F 28.4 °F 87% 29.89 in 6.2 mi ESE 4.6 mph - N/A   Mostly Cloudy
11:00 PM 33.8 °F 24.8 °F 28.4 °F 81% 29.89 in 6.2 mi SSE 12.7 mph - N/A   Overcast